"2009-04-22 00:00:30",821126,3.202,171.8,5.414,0.567,15.68,107.4233,18.28,19.23,22.76,0,110.8,13.21,19.10,133.8
"2009-04-22 00:01:00",821127,3.392,163.1,6.069,0.438,15.68,107.4293,18.3,19.22,22.73,0,110.8,13.21,19.11,125.1
"2009-04-22 00:01:30",821128,2.648,173.2,4.382,0.304,15.68,107.4285,18.29,19.25,23.03,0,110.8,13.21,19.11,135.2
"2009-04-22 00:02:00",821129,3.195,163.5,10.56,0.442,15.59,107.4454,18.34,19.25,22.79,0,110.8,13.21,19.15,125.5
"2009-04-22 00:02:30",821130,3.464,154.3,4.845,0.307,15.56,107.4535,18.36,19.26,23.06,0,110.8,13.21,19.17,116.3
"2009-04-22 00:03:00",821131,3.101,151,3.943,0.334,15.59,107.4526,18.36,19.27,23.36,0,110.8,13.21,19.17,113.0
"2009-04-22 00:03:30",821132,3.242,149.5,3.837,0.492,15.53,107.4496,18.35,19.27,23.44,0,110.8,13.21,19.16,111.5
"2009-04-22 00:04:00",821133,3.728,158,4.322,0.537,15.61,107.4469,18.34,19.29,23.06,0,110.8,13.21,19.16,120.0
"2009-04-22 00:04:30",821134,3.946,161.8,4.632,0.233,15.66,107.4432,18.33,19.3,22.76,0,110.8,13.21,19.15,123.8
"2009-04-22 00:05:00",821135,3.936,163.2,4.607,0.177,15.68,107.445,18.34,19.31,22.92,0,110.8,13.2,19.15,125.2
"2009-04-22 00:05:30",821136,3.726,166,2.891,0.248,15.72,107.4632,18.38,19.32,22.59,0,110.8,13.2,19.20,128.0
"2009-04-22 00:06:00",821137,3.617,156.8,5.022,0.203,15.64,107.4707,18.4,19.34,23.13,0,110.8,13.2,19.22,118.8
"2009-04-22 00:06:30",821138,3.411,159.8,6.065,0.2,15.67,107.4703,18.4,19.35,23.42,0,110.8,13.2,19.22,121.8
"2009-04-22 00:07:00",821139,4.37,165.5,4.107,0.192,15.65,107.4682,18.4,19.37,23.38,0,110.8,13.2,19.21,127.5
"2009-04-22 00:07:30",821140,4.119,160.9,2.851,0.158,15.75,107.47,18.4,19.38,23.64,0,110.8,13.2,19.22,122.9
"2009-04-22 00:08:00",821141,3.951,157.3,5.792,0.432,15.77,107.4679,18.39,19.4,24.03,0,110.8,13.2,19.21,119.3
"2009-04-22 00:08:30",821142,3.259,157.6,4.408,0.255,15.69,107.4688,18.4,19.4,24.24,0,110.8,13.2,19.21,119.6
"2009-04-22 00:09:00",821143,3.65,153.4,3.239,0.225,15.63,107.4679,18.39,19.39,23.9,0,110.8,13.2,19.21,115.4
"2009-04-22 00:09:30",821144,3.372,151.6,3.941,0.14,15.6,107.4664,18.39,19.4,23.68,0,110.8,13.2,19.21,113.6
"2009-04-22 00:10:00",821145,3.647,165.2,4.861,0.2,15.65,107.4765,18.42,19.4,23.48,0,110.8,13.2,19.23,127.2
"2009-04-22 00:10:30",821146,3.944,155.7,4.598,0.23,15.64,107.4853,18.44,19.42,23.29,0,110.8,13.2,19.26,117.7
"2009-04-22 00:11:00",821147,3.714,152,4.164,0.235,15.68,107.4879,18.45,19.43,23.18,0,110.8,13.21,19.26,114.0
"2009-04-22 00:11:30",821148,3.733,147.1,2.305,0.2,15.73,107.4974,18.47,19.43,23.56,0,110.8,13.21,19.29,109.1
"2009-04-22 00:12:00",821149,3.63,143.7,4.183,0.186,15.61,107.502,18.48,19.45,23.71,0,110.8,13.21,19.30,105.7
"2009-04-22 00:12:30",821150,3.707,150.7,8.15,0.316,15.66,107.5035,18.49,19.45,23.45,0,110.8,13.21,19.30,112.7
"2009-04-22 00:13:00",821151,3.308,153.4,5.26,0.158,15.67,107.5011,18.48,19.46,22.96,0,110.8,13.21,19.30,115.4
"2009-04-22 00:13:30",821152,3.434,151,4.703,0.211,15.64,107.5017,18.48,19.47,22.91,0,110.8,13.21,19.30,113.0
"2009-04-22 00:14:00",821153,3.418,144.5,5.223,0.169,15.61,107.5008,18.48,19.46,23.02,0,110.8,13.21,19.30,106.5
"2009-04-22 00:14:30",821154,3.124,150.6,2.313,0.18,15.62,107.502,18.48,19.48,22.78,0,110.8,13.21,19.30,112.6
"2009-04-22 00:15:00",821155,2.892,143.9,3.374,0.105,15.58,107.5017,18.48,19.49,22.69,0,110.8,13.21,19.30,105.9
"2009-04-22 00:15:30",821156,2.763,153.4,4.807,0.153,15.59,107.502,18.48,19.5,22.68,0,110.8,13.21,19.30,115.4
"2009-04-22 00:16:00",821157,2.737,153.6,2.078,0.168,15.56,107.5008,18.48,19.51,22.48,0,110.8,13.21,19.30,115.6
"2009-04-22 00:16:30",821158,2.793,149.2,5.295,0.114,15.51,107.5029,18.48,19.5,22.38,0,110.8,13.21,19.30,111.2
"2009-04-22 00:17:00",821159,2.877,156.2,2.609,0.077,15.68,107.5005,18.48,19.51,22.25,0,110.8,13.21,19.29,118.2
"2009-04-22 00:17:30",821160,3.179,154.3,1.699,0.195,15.61,107.5016,18.48,19.51,22.15,0,110.8,13.21,19.30,116.3
"2009-04-22 00:18:00",821161,3.613,150.7,2.686,0.191,15.6,107.5065,18.49,19.51,22.32,0,110.8,13.21,19.31,112.7
"2009-04-22 00:18:30",821162,3.93,152.4,2.147,0.234,15.6,107.5168,18.52,19.51,22.57,0,110.8,13.2,19.34,114.4
"2009-04-22 00:19:00",821163,3.998,150.8,2.726,0.145,15.59,107.5247,18.54,19.53,22.42,0,110.8,13.2,19.36,112.8
"2009-04-22 00:19:30",821164,4.37,146.4,2.464,0.109,15.76,107.5258,18.54,19.54,22.41,0,110.8,13.2,19.36,108.4
"2009-04-22 00:20:00",821165,4.295,142.7,1.337,0.152,15.66,107.5276,18.55,19.55,23.07,0,110.8,13.2,19.36,104.7
"2009-04-22 00:20:30",821166,3.986,147.3,4.075,0.214,15.8,107.5293,18.55,19.55,23.08,0,110.8,13.2,19.37,109.3
"2009-04-22 00:21:00",821167,4.156,142,4.204,0.309,15.73,107.5295,18.55,19.56,22.91,0,110.8,13.2,19.37,104.0
"2009-04-22 00:21:30",821168,3.534,143.8,3.562,0.226,15.74,107.533,18.56,19.55,22.79,0,110.8,13.2,19.38,105.8
"2009-04-22 00:22:00",821169,3.708,145.4,3.316,0.198,15.73,107.5297,18.55,19.55,22.36,0,110.8,13.2,19.37,107.4
"2009-04-22 00:22:30",821170,3.921,139.8,4.063,0.302,15.72,107.53,18.55,19.55,22.7,0,110.8,13.2,19.37,101.8
"2009-04-22 00:23:00",821171,3.617,136.6,2.994,0.217,15.76,107.5336,18.56,19.56,23.31,0,110.8,13.2,19.38,98.6
"2009-04-22 00:23:30",821172,3.72,134.5,3.65,0.364,15.78,107.5324,18.56,19.56,23.57,0,110.8,13.2,19.38,96.5
"2009-04-22 00:24:00",821173,3.738,145.3,4.427,0.187,15.75,107.5289,18.55,19.56,23.29,0,110.8,13.2,19.37,107.3
"2009-04-22 00:24:30",821174,4.041,150.5,2.751,0.225,15.82,107.5233,18.54,19.56,23.08,0,110.8,13.2,19.35,112.5
"2009-04-22 00:25:00",821175,4.042,146.9,2.622,0.295,15.85,107.5201,18.53,19.55,23.2,0,110.8,13.2,19.35,108.9
"2009-04-22 00:25:30",821176,4.137,144,3.879,0.234,15.79,107.519,18.53,19.56,23.38,0,110.8,13.2,19.34,106.0
"2009-04-22 00:26:00",821177,3.8,155.6,2.5,0.244,15.79,107.5134,18.51,19.54,22.98,0,110.8,13.2,19.33,117.6
"2009-04-22 00:26:30",821178,3.669,152.4,3.441,0.19,15.87,107.507,18.5,19.56,22.58,0,110.8,13.2,19.31,114.4
"2009-04-22 00:27:00",821179,3.693,138.3,3.463,0.29,15.67,107.5039,18.49,19.55,23.19,0,110.8,13.2,19.30,100.3
"2009-04-22 00:27:30",821180,3.863,140.1,4.769,0.193,15.71,107.4956,18.47,19.54,24.18,0,110.8,13.2,19.28,102.1
"2009-04-22 00:28:00",821181,3.851,149.9,2.464,0.178,15.81,107.4977,18.47,19.55,24.04,0,110.8,13.2,19.29,111.9
"2009-04-22 00:28:30",821182,3.78,147.1,4.359,0.551,15.73,107.4968,18.47,19.55,23.96,0,110.8,13.2,19.29,109.1
"2009-04-22 00:29:00",821183,4.23,148.2,2.727,0.207,15.69,107.4971,18.47,19.53,23.99,0,110.8,13.2,19.29,110.2
"2009-04-22 00:29:30",821184,3.853,147.2,2.004,0.33,15.71,107.4965,18.47,19.53,24.15,0,110.8,13.2,19.28,109.2
"2009-04-22 00:30:00",821185,3.727,149.9,3.379,0.196,15.73,107.4965,18.47,19.53,24.27,0,110.8,13.2,19.28,111.9
"2009-04-22 00:30:30",821186,3.83,147.4,4.061,0.226,15.74,107.498,18.47,19.52,24.9,0,110.8,13.2,19.29,109.4
"2009-04-22 00:31:00",821187,3.877,150.3,2.198,0.109,15.79,107.4977,18.47,19.53,25.14,0,110.8,13.2,19.29,112.3
"2009-04-22 00:31:30",821188,3.488,151.3,2.442,0.227,15.73,107.4971,18.47,19.52,25.16,0,110.8,13.2,19.29,113.3
"2009-04-22 00:32:00",821189,3.445,148.7,3.598,0.14,15.72,107.4983,18.47,19.51,24.67,0,110.8,13.2,19.29,110.7
"2009-04-22 00:32:30",821190,3.789,153.4,2.536,0.126,15.77,107.4974,18.47,19.51,24.79,0,110.8,13.2,19.29,115.4
"2009-04-22 00:33:00",821191,3.82,148.9,2.127,0.118,15.8,107.4964,18.47,19.5,24.15,0,110.8,13.2,19.28,110.9
"2009-04-22 00:33:30",821192,3.583,149.1,3.946,0.218,15.76,107.4879,18.45,19.49,23.68,0,110.8,13.21,19.26,111.1
"2009-04-22 00:34:00",821193,3.998,155.6,1.802,0.136,15.69,107.4779,18.42,19.49,23.5,0,110.8,13.21,19.24,117.6
"2009-04-22 00:34:30",821194,3.79,152,2.7,0.107,15.75,107.4678,18.39,19.47,23.17,0,110.8,13.21,19.21,114.0
"2009-04-22 00:35:00",821195,3.666,151.3,2.292,0.125,15.75,107.4661,18.39,19.45,23.06,0,110.8,13.21,19.21,113.3
"2009-04-22 00:35:30",821196,3.69,154.9,1.401,0.083,15.78,107.4643,18.39,19.44,23.07,0,110.8,13.21,19.20,116.9
"2009-04-22 00:36:00",821197,3.515,152.2,1.75,0.109,15.69,107.4661,18.39,19.44,22.96,0,110.8,13.21,19.21,114.2
"2009-04-22 00:36:30",821198,3.834,151.3,1.226,0.222,15.69,107.465,18.39,19.44,23.16,0,110.8,13.21,19.20,113.3
"2009-04-22 00:37:00",821199,3.802,151.8,2.47,0.086,15.76,107.4527,18.36,19.42,23.31,0,110.8,13.21,19.17,113.8
"2009-04-22 00:37:30",821200,3.811,152.2,3.617,0.092,15.75,107.4378,18.32,19.4,23.16,0,110.8,13.21,19.13,114.2
"2009-04-22 00:38:00",821201,3.546,152.3,1.782,0.085,15.72,107.4315,18.3,19.4,23.08,0,110.8,13.21,19.12,114.3
"2009-04-22 00:38:30",821202,3.399,158,2.606,0.126,15.78,107.4324,18.3,19.39,22.96,0,110.8,13.2,19.12,120.0
"2009-04-22 00:39:00",821203,3.163,159.5,1.221,0.058,15.62,107.4357,18.31,19.39,22.82,0,110.8,13.2,19.13,121.5
"2009-04-22 00:39:30",821204,3.29,160.4,1.523,0.106,15.79,107.4342,18.31,19.37,22.53,0,110.8,13.2,19.12,122.4
"2009-04-22 00:40:00",821205,3.365,162.6,2.355,0.092,15.86,107.4285,18.29,19.35,22.39,0,110.8,13.2,19.11,124.6
"2009-04-22 00:40:30",821206,3.537,165.9,1.58,0.064,15.95,107.4142,18.26,19.35,22.24,0,110.8,13.2,19.07,127.9
"2009-04-22 00:41:00",821207,3.546,167.8,1.389,0.107,15.99,107.4006,18.22,19.33,22.11,0,110.8,13.2,19.04,129.8
"2009-04-22 00:41:30",821208,3.665,168.7,1.175,0.107,15.87,107.3989,18.22,19.32,22.03,0,110.8,13.2,19.03,130.7
"2009-04-22 00:42:00",821209,3.503,169.9,1.258,0.137,15.91,107.4001,18.22,19.32,21.99,0,110.8,13.2,19.04,131.9
"2009-04-22 00:42:30",821210,2.596,173,6.644,0.593,15.94,107.3998,18.22,19.29,21.83,0,110.8,13.2,19.04,135.0
"2009-04-22 00:43:00",821211,3.035,168.3,4.069,0.323,15.91,107.3999,18.22,19.28,21.54,0,110.8,13.2,19.04,130.3
"2009-04-22 00:43:30",821212,3.786,174.4,1.195,0.145,15.77,107.3984,18.22,19.28,22,0,110.8,13.2,19.03,136.4
"2009-04-22 00:44:00",821213,4.09,174,0.885,0.086,15.81,107.3908,18.2,19.26,22.21,0,110.8,13.2,19.01,136.0
"2009-04-22 00:44:30",821214,3.95,174.2,1.397,0.087,15.72,107.3809,18.17,19.26,22.3,0,110.8,13.2,18.99,136.2
"2009-04-22 00:45:00",821215,3.985,177.2,1.104,0.119,15.82,107.3689,18.14,19.27,22.24,0,110.8,13.21,18.96,139.2
"2009-04-22 00:45:30",821216,4.096,178.3,0.731,0.116,15.89,107.3661,18.13,19.24,22.28,0,110.8,13.21,18.95,140.3
"2009-04-22 00:46:00",821217,4.124,180,0.924,0.083,15.95,107.3652,18.13,19.24,22.27,0,110.8,13.21,18.95,142.0
"2009-04-22 00:46:30",821218,3.77,177.8,1.07,0.066,15.86,107.3655,18.13,19.24,22.27,0,110.8,13.21,18.95,139.8
"2009-04-22 00:47:00",821219,3.76,177.9,2.258,0.155,15.84,107.3658,18.13,19.23,22.24,0,110.8,13.21,18.95,139.9
"2009-04-22 00:47:30",821220,3.127,170.9,2.517,0.2,15.96,107.3664,18.13,19.23,22.18,0,110.8,13.21,18.95,132.9
"2009-04-22 00:48:00",821221,3.376,173.1,3.023,0.325,16.01,107.367,18.14,19.22,21.67,0,110.8,13.21,18.95,135.1
"2009-04-22 00:48:30",821222,3.86,172.1,1.241,0.083,15.81,107.3673,18.14,19.22,22.13,0,110.8,13.21,18.95,134.1
"2009-04-22 00:49:00",821223,3.759,172.8,2.854,0.177,15.89,107.3673,18.14,19.21,22.26,0,110.8,13.21,18.95,134.8
"2009-04-22 00:49:30",821224,3.571,169.4,4.087,0.213,16,107.3691,18.14,19.2,22.22,0,110.8,13.21,18.96,131.4
"2009-04-22 00:50:00",821225,3.641,166,1.234,0.111,15.86,107.3694,18.14,19.2,22.29,0,110.8,13.21,18.96,128.0
"2009-04-22 00:50:30",821226,3.659,169.5,5.703,0.115,15.88,107.369,18.14,19.2,22.38,0,110.8,13.21,18.96,131.5
"2009-04-22 00:51:00",821227,3.653,175.8,5.486,0.27,16,107.3676,18.14,19.18,22.25,0,110.8,13.21,18.95,137.8
"2009-04-22 00:51:30",821228,3.622,174,3.968,0.161,16,107.3645,18.13,19.18,22.07,0,110.8,13.21,18.95,136.0
"2009-04-22 00:52:00",821229,3.254,174.2,2.077,0.181,15.97,107.3639,18.13,19.17,22.13,0,110.8,13.21,18.94,136.2
"2009-04-22 00:52:30",821230,3.278,175.2,6.484,0.199,15.96,107.3604,18.12,19.16,22.12,0,110.8,13.21,18.93,137.2
"2009-04-22 00:53:00",821231,3.144,174.5,2.685,0.196,16,107.358,18.11,19.16,22.11,0,110.8,13.21,18.93,136.5
"2009-04-22 00:53:30",821232,3.214,171.8,3.743,0.198,15.96,107.3509,18.09,19.15,22.05,0,110.8,13.21,18.91,133.8
"2009-04-22 00:54:00",821233,3.343,169.1,1.902,0.172,15.98,107.3437,18.08,19.14,22.31,0,110.8,13.21,18.89,131.1
"2009-04-22 00:54:30",821234,3.618,171.6,3.619,0.223,16.01,107.3435,18.08,19.15,22.15,0,110.8,13.21,18.89,133.6
"2009-04-22 00:55:00",821235,3.367,175.9,5.732,0.167,16.12,107.3459,18.08,19.15,22.03,0,110.8,13.21,18.90,137.9
"2009-04-22 00:55:30",821236,3.428,173.2,4.106,0.149,15.97,107.3471,18.09,19.14,22.03,0,110.8,13.21,18.90,135.2
"2009-04-22 00:56:00",821237,2.957,170.3,3.259,0.251,16.06,107.3459,18.08,19.14,22.24,0,110.8,13.2,18.90,132.3
"2009-04-22 00:56:30",821238,3.129,174.3,2.014,0.188,15.94,107.3477,18.09,19.13,22.24,0,110.8,13.2,18.90,136.3
"2009-04-22 00:57:00",821239,3.503,176.2,0.918,0.121,15.96,107.3535,18.1,19.14,22.42,0,110.8,13.2,18.92,138.2
"2009-04-22 00:57:30",821240,3.313,172.2,1.679,0.13,15.9,107.3523,18.1,19.13,22.54,0,110.8,13.2,18.91,134.2
"2009-04-22 00:58:00",821241,3.13,171.4,1.371,0.052,15.87,107.3514,18.1,19.12,22.78,0,110.8,13.2,18.91,133.4
"2009-04-22 00:58:30",821242,3.24,170.4,2.205,0.075,15.84,107.3523,18.1,19.11,23.05,0,110.8,13.2,18.91,132.4
"2009-04-22 00:59:00",821243,3.23,176.5,6.76,0.109,15.91,107.3502,18.09,19.12,22.97,0,110.8,13.2,18.91,138.5
"2009-04-22 00:59:30",821244,3.217,195.6,5.385,0.252,16.13,107.3516,18.1,19.1,22.41,0,110.8,13.2,18.91,157.6
"2009-04-22 01:00:00",821245,2.701,221.6,8.01,0.239,16.26,107.3344,18.05,19.1,21.91,0,110.8,13.2,18.87,183.6
"2009-04-22 01:00:30",821246,2.266,211.3,7.058,0.228,16.14,107.3303,18.04,19.07,21.71,0,110.8,13.2,18.86,173.3
"2009-04-22 01:01:00",821247,2.655,202.1,4.552,0.192,16.25,107.3236,18.02,19.06,21.65,0,110.8,13.21,18.84,164.1
"2009-04-22 01:01:30",821248,2.86,205.4,4.62,0.3,16.29,107.3231,18.02,19.05,21.43,0,110.8,13.21,18.84,167.4
"2009-04-22 01:02:00",821249,3.288,209.3,7.666,0.382,16.23,107.3225,18.02,19.04,21.5,0,110.8,13.21,18.84,171.3
"2009-04-22 01:02:30",821250,2.943,223.5,7.869,0.359,16.42,107.3236,18.02,19.04,21.38,0,110.8,13.21,18.84,185.5
"2009-04-22 01:03:00",821251,2.513,213.5,3.668,0.272,16.42,107.3245,18.03,19.05,20.77,0,110.8,13.21,18.84,175.5
"2009-04-22 01:03:30",821252,3.747,205.2,12.36,0.697,16.35,107.3273,18.03,19.05,20.77,0,110.8,13.21,18.85,167.2
"2009-04-22 01:04:00",821253,2.967,224.2,12.5,0.44,16.6,107.336,18.06,19.04,20.39,0,110.8,13.21,18.87,186.2
"2009-04-22 01:04:30",821254,2.994,241.4,4.609,0.334,16.55,107.3399,18.07,19.05,19.98,0,110.8,13.21,18.88,203.4
"2009-04-22 01:05:00",821255,2.203,246,8.99,0.303,16.53,107.349,18.09,19.04,19.9,0,110.8,13.21,18.91,208.0
"2009-04-22 01:05:30",821256,3.31,212.7,12.88,0.441,16.32,107.3571,18.11,19.05,20.27,0,110.8,13.21,18.93,174.7
"2009-04-22 01:06:00",821257,3.465,225,14.79,0.483,16.36,107.3554,18.11,19.05,21.05,0,110.8,13.21,18.92,187.0
"2009-04-22 01:06:30",821258,2.27,211.2,18.12,0.552,16.36,107.356,18.11,19.06,20.95,0,110.8,13.21,18.92,173.2
"2009-04-22 01:07:00",821259,2.592,216.3,16.49,0.773,16.19,107.356,18.11,19.06,21.65,0,110.8,13.21,18.92,178.3
"2009-04-22 01:07:30",821260,1.847,207.3,17.04,0.447,16.18,107.3566,18.11,19.07,21.54,0,110.8,13.21,18.92,169.3
"2009-04-22 01:08:00",821261,2.441,234.4,9.04,0.421,16.27,107.3571,18.11,19.05,21.43,0,110.8,13.21,18.93,196.4
"2009-04-22 01:08:30",821262,2.55,243.8,15.56,0.506,16.33,107.3574,18.11,19.06,20.79,0,110.8,13.21,18.93,205.8
"2009-04-22 01:09:00",821263,1.721,221,12.34,0.502,15.96,107.3574,18.11,19.06,21.92,0,110.8,13.21,18.93,183.0
"2009-04-22 01:09:30",821264,1.868,220.6,19.7,0.775,16.37,107.3574,18.11,19.06,21.75,0,110.8,13.21,18.93,182.6
"2009-04-22 01:10:00",821265,2.682,208.7,6.58,0.426,16.29,107.3574,18.11,19.07,21.3,0,110.8,13.21,18.93,170.7
"2009-04-22 01:10:30",821266,1.984,212.8,16.27,0.518,16.36,107.3478,18.09,19.06,21.15,0,110.8,13.21,18.90,174.8
"2009-04-22 01:11:00",821267,3.077,191.2,9.2,0.614,16.31,107.3332,18.05,19.05,21.58,0,110.8,13.21,18.86,153.2
"2009-04-22 01:11:30",821268,4.049,199.9,8.3,0.267,16.17,107.3237,18.03,19.03,22.2,0,110.8,13.21,18.84,161.9
"2009-04-22 01:12:00",821269,3.469,207.8,6.188,0.337,16.14,107.3237,18.03,19.02,22.47,0,110.8,13.21,18.84,169.8
"2009-04-22 01:12:30",821270,2.928,209.2,14.44,0.429,16.21,107.3231,18.02,19,22.69,0,110.8,13.21,18.84,171.2
"2009-04-22 01:13:00",821271,2.572,217.4,6.478,0.254,16.26,107.3147,18,18.99,22.83,0,110.8,13.21,18.82,179.4
"2009-04-22 01:13:30",821272,2.289,206.3,11.13,0.45,16.22,107.2992,17.96,18.97,22.77,0,110.8,13.21,18.78,168.3
"2009-04-22 01:14:00",821273,1.774,239.5,17.58,0.289,16.44,107.2899,17.94,18.95,22.75,0,110.8,13.21,18.75,201.5
"2009-04-22 01:14:30",821274,2.689,211.1,9.85,0.449,16.25,107.2899,17.94,18.93,22.37,0,110.8,13.21,18.75,173.1
"2009-04-22 01:15:00",821275,2.756,207.1,11.6,0.328,16.28,107.2899,17.94,18.92,22.92,0,110.8,13.21,18.75,169.1
"2009-04-22 01:15:30",821276,3.182,199.8,7.723,0.632,16.42,107.2899,17.94,18.91,22.45,0,110.8,13.2,18.75,161.8
"2009-04-22 01:16:00",821277,2.927,233.5,20.65,0.238,16.6,107.2862,17.93,18.9,21.63,0,110.8,13.21,18.74,195.5
"2009-04-22 01:16:30",821278,2.645,270.5,6.533,0.327,16.58,107.2843,17.92,18.89,21.42,0,110.8,13.21,18.74,232.5
"2009-04-22 01:17:00",821279,2.862,249.4,13.3,0.529,16.62,107.2854,17.93,18.89,21.24,0,110.8,13.21,18.74,211.4
"2009-04-22 01:17:30",821280,2.882,224.9,6.424,0.383,16.43,107.2885,17.93,18.9,21.45,0,110.8,13.21,18.75,186.9
"2009-04-22 01:18:00",821281,2.893,196.8,9.1,0.419,16.37,107.2877,17.93,18.89,22.01,0,110.8,13.21,18.75,158.8
"2009-04-22 01:18:30",821282,1.588,216.5,8.87,0.165,16.49,107.2874,17.93,18.89,22.02,0,110.8,13.21,18.75,178.5
"2009-04-22 01:19:00",821283,2.041,223.3,8.51,0.281,16.59,107.2832,17.92,18.89,21.44,0,110.8,13.21,18.74,185.3
"2009-04-22 01:19:30",821284,1.591,187.8,17.55,0.298,16.39,107.2764,17.9,18.87,21.86,0,110.8,13.21,18.72,149.8
"2009-04-22 01:20:00",821285,1.393,231.2,35.64,0.282,16.48,107.2587,17.86,18.88,22.23,0,110.8,13.21,18.67,193.2
"2009-04-22 01:20:30",821286,1.331,234.1,26.27,0.436,16.49,107.2578,17.86,18.87,21.81,0,110.8,13.21,18.67,196.1
"2009-04-22 01:21:00",821287,2.592,210.2,8.26,0.25,16.37,107.257,17.85,18.88,22.06,0,110.8,13.21,18.67,172.2
"2009-04-22 01:21:30",821288,2.327,234.5,12.94,0.296,16.69,107.2561,17.85,18.89,21.87,0,110.8,13.21,18.67,196.5
"2009-04-22 01:22:00",821289,2.01,228.4,25.33,0.816,16.54,107.2561,17.85,18.87,21.44,0,110.8,13.21,18.67,190.4
"2009-04-22 01:22:30",821290,2.167,203.1,19.98,1.035,16.34,107.2561,17.85,18.86,22.23,0,110.8,13.21,18.67,165.1
"2009-04-22 01:23:00",821291,2.625,209.9,11.38,0.334,16.4,107.2561,17.85,18.85,22.83,0,110.8,13.21,18.67,171.9
"2009-04-22 01:23:30",821292,3.014,238.4,7.819,0.389,16.84,107.2561,17.85,18.86,21.88,0,110.8,13.21,18.67,200.4
"2009-04-22 01:24:00",821293,2.025,220.5,7.187,0.414,16.51,107.2561,17.85,18.84,21.95,0,110.8,13.22,18.67,182.5
"2009-04-22 01:24:30",821294,1.937,228.2,12.51,0.31,16.67,107.2561,17.85,18.84,21.77,0,110.8,13.22,18.67,190.2
"2009-04-22 01:25:00",821295,2.715,235,11.91,0.404,16.71,107.2561,17.85,18.83,21.47,0,110.8,13.22,18.67,197.0
"2009-04-22 01:25:30",821296,3.069,249,8.28,0.453,16.79,107.2556,17.85,18.83,21.54,0,110.8,13.22,18.66,211.0
"2009-04-22 01:26:00",821297,2.757,271.3,7.834,0.284,16.89,107.2542,17.85,18.82,21.12,0,110.8,13.22,18.66,233.3
"2009-04-22 01:26:30",821298,2.478,284.1,10.87,0.697,16.84,107.2553,17.85,18.83,20.9,0,110.7,13.22,18.66,246.1
"2009-04-22 01:27:00",821299,1.053,223.2,28.81,0.42,16.67,107.2494,17.83,18.83,21.39,0,110.8,13.22,18.65,185.2
"2009-04-22 01:27:30",821300,0.556,214.3,34.15,0.274,16.75,107.2253,17.77,18.83,22.35,0,110.7,13.22,18.59,176.3
"2009-04-22 01:28:00",821301,1.44,217.9,12.75,0.416,16.6,107.2239,17.77,18.81,21.78,0,110.7,13.22,18.58,179.9
"2009-04-22 01:28:30",821302,2.188,200,5.929,0.261,16.53,107.2284,17.78,18.8,22.49,0,110.7,13.22,18.59,162.0
"2009-04-22 01:29:00",821303,2.483,218.6,5.964,0.18,16.7,107.2281,17.78,18.81,22.46,0,110.7,13.22,18.59,180.6
"2009-04-22 01:29:30",821304,3.071,208.2,7.946,0.33,16.77,107.2299,17.78,18.8,22.21,0,110.7,13.21,18.60,170.2
"2009-04-22 01:30:00",821305,2.682,199.8,7.389,0.387,16.73,107.2324,17.79,18.79,22.22,0,110.7,13.21,18.61,161.8
"2009-04-22 01:30:30",821306,1.768,232.2,11.83,0.39,16.93,107.2345,17.8,18.79,22.24,0,110.7,13.21,18.61,194.2
"2009-04-22 01:31:00",821307,1.506,228.6,3.993,0.173,16.99,107.2372,17.8,18.78,21.88,0,110.7,13.21,18.62,190.6
"2009-04-22 01:31:30",821308,1.573,219.5,12.76,0.478,16.9,107.2324,17.79,18.77,21.81,0,110.7,13.21,18.61,181.5
"2009-04-22 01:32:00",821309,2.033,218,13.26,0.244,17.06,107.2236,17.77,18.78,21.94,0,110.7,13.21,18.58,180.0
"2009-04-22 01:32:30",821310,2.059,249.8,6.246,0.121,17.1,107.2179,17.75,18.76,21.64,0,110.7,13.21,18.57,211.8
"2009-04-22 01:33:00",821311,1.879,240.7,7.077,0.151,17.01,107.2209,17.76,18.76,21.54,0,110.7,13.21,18.58,202.7
"2009-04-22 01:33:30",821312,1.582,227.5,10.78,0.358,17,107.2233,17.77,18.75,21.79,0,110.7,13.21,18.58,189.5
"2009-04-22 01:34:00",821313,1.727,207.3,9.07,0.491,16.95,107.2225,17.77,18.73,21.74,0,110.7,13.21,18.58,169.3
"2009-04-22 01:34:30",821314,1.753,212.4,7.702,0.173,16.98,107.206,17.72,18.73,21.79,0,110.7,13.22,18.54,174.4
"2009-04-22 01:35:00",821315,1.847,210.7,10.65,0.307,17.11,107.1911,17.69,18.71,21.62,0,110.7,13.22,18.50,172.7
"2009-04-22 01:35:30",821316,1.889,208.1,15.17,0.345,17.09,107.1911,17.69,18.71,21.71,0,110.7,13.22,18.50,170.1
"2009-04-22 01:36:00",821317,1.354,243.1,7.588,0.183,17.11,107.1888,17.68,18.67,21.72,0,110.7,13.22,18.49,205.1
"2009-04-22 01:36:30",821318,1.738,232,9.38,0.281,17.19,107.1793,17.65,18.67,21.63,0,110.7,13.22,18.47,194.0
"2009-04-22 01:37:00",821319,1.868,229.5,7.66,0.28,17.28,107.1587,17.6,18.65,21.31,0,110.7,13.22,18.42,191.5
"2009-04-22 01:37:30",821320,2.009,243.3,15.05,0.184,17.23,107.1573,17.6,18.63,21.22,0,110.7,13.22,18.41,205.3
"2009-04-22 01:38:00",821321,1.53,246.3,19.26,0.22,17.15,107.1573,17.6,18.62,21.39,0,110.7,13.23,18.41,208.3
"2009-04-22 01:38:30",821322,1.604,226,6.98,0.126,17.05,107.143,17.56,18.6,21.91,0,110.7,13.23,18.38,188.0
"2009-04-22 01:39:00",821323,1.709,228.7,3.724,0.129,17.1,107.1272,17.52,18.57,21.89,0,110.7,13.23,18.33,190.7
"2009-04-22 01:39:30",821324,1.491,238.1,6.163,0.205,17.14,107.1236,17.51,18.57,21.78,0,110.7,13.23,18.33,200.1
"2009-04-22 01:40:00",821325,1.325,215.6,6.217,0.187,17.14,107.1236,17.51,18.56,21.72,0,110.7,13.23,18.33,177.6
"2009-04-22 01:40:30",821326,0.971,204,11.41,0.261,17.13,107.1162,17.49,18.54,21.78,0,110.7,13.23,18.31,166.0
"2009-04-22 01:41:00",821327,1.177,237.6,12.14,0.134,17.14,107.0971,17.44,18.53,21.8,0,110.7,13.23,18.26,199.6
"2009-04-22 01:41:30",821328,1.426,221.4,14.6,0.268,17.19,107.0898,17.43,18.5,21.74,0,110.7,13.24,18.24,183.4
"2009-04-22 01:42:00",821329,1.198,204.6,14.83,0.163,17.09,107.0898,17.43,18.49,21.66,0,110.7,13.24,18.24,166.6
"2009-04-22 01:42:30",821330,1.23,217.2,11.71,0.125,17.11,107.0856,17.41,18.47,21.78,0,110.7,13.24,18.23,179.2
"2009-04-22 01:43:00",821331,0.897,221.3,7.648,0.219,17.15,107.0694,17.37,18.46,21.86,0,110.7,13.24,18.19,183.3
"2009-04-22 01:43:30",821332,1.832,197.1,8.63,0.226,17.09,107.0648,17.36,18.45,21.94,0,110.7,13.24,18.17,159.1
"2009-04-22 01:44:00",821333,1.31,231.7,25.44,0.253,17.24,107.0648,17.36,18.42,21.76,0,110.7,13.24,18.17,193.7
"2009-04-22 01:44:30",821334,2.225,240.5,7.036,0.42,17.21,107.0653,17.36,18.41,21.69,0,110.7,13.24,18.18,202.5
"2009-04-22 01:45:00",821335,1.514,258.5,10.53,0.399,17.27,107.0471,17.32,18.38,21.67,0,110.7,13.24,18.13,220.5
"2009-04-22 01:45:30",821336,0.619,241.9,21.65,0.363,17.15,107.0422,17.3,18.37,21.56,0,110.7,13.24,18.12,203.9
"2009-04-22 01:46:00",821337,0.492,237.1,27.4,0.396,17.14,107.0491,17.32,18.35,21.91,0,110.7,13.24,18.13,199.1
"2009-04-22 01:46:30",821338,2.004,178,14.91,0.369,17.05,107.0543,17.33,18.34,22.09,0,110.6,13.24,18.15,140.0
"2009-04-22 01:47:00",821339,2.026,221.8,26.02,0.467,17.12,107.0404,17.3,18.33,22.62,0,110.7,13.24,18.11,183.8
"2009-04-22 01:47:30",821340,1.331,267.7,10.44,0.322,17.24,107.0252,17.26,18.31,22.22,0,110.6,13.24,18.07,229.7
"2009-04-22 01:48:00",821341,1.498,226.1,17.61,0.358,17.26,107.0247,17.26,18.28,21.86,0,110.7,13.24,18.07,188.1
"2009-04-22 01:48:30",821342,1.775,222.5,8.54,0.206,17.15,107.019,17.24,18.26,22.01,0,110.7,13.24,18.06,184.5